Flag for Austria Weather past 2 weeks in Bad Radkersburg, Styria, Austria

Now
80 °F

Warm.


Feels Like: 82 °F
Forecast: 58 / 84 °F
Wind: 2 mph from North

Location: Murska Sobota

Current Time: Aug 2, 2015 at 5:07:25 PM

Latest Report: Aug 2, 2015 at 4:00 PM


Visibility: N/A

Pressure: 30.03 "Hg

Humidity: 59%

Dew point: 64 °F

Location of Bad RadkersburgLocation

Historic Weather in Bad Radkersburg — Graph

°F

Bad Radkersburg temperature yesterday

Maximum temperature yesterday: 77 °F (at 3:00 PM)
Minimum temperature yesterday: 51 °F (at 4:00 AM)
Average temperature yesterday: 65 °F

Past Weeks' High & Low Weather Summary

 TemperatureHumidityPressure
High95 °F (Jul 22, 4:00 PM)98% (Jul 30, 6:00 AM)30.08 "Hg (Jul 30, 6:00 AM)
Low51 °F (Aug 1, 4:00 AM)35% (Jul 31, 3:00 PM)29.72 "Hg (Jul 25, 3:00 PM)
Average71 °F76%29.92 "Hg
* Reported Jul 18 2:00 PM — Aug 2 2:00 PM, Bad Radkersburg, Weather by CustomWeather, © 2015

Note: Actual official high and low records may vary slightly from our data, if they occured in-between our weather recording intervals... More about our weather records

Advertising

Bad Radkersburg weather history for previous 24 hours

 ConditionsComfort  
Time TempWeatherWind HumidityBarometerVisibility
2:00 PM
Sun, Aug 2
80 °FPartly sunny.2 mph55%30.03 "Hg19 mi
1:00 PM78 °FWarm.2 mph58%30.03 "HgN/A
12:00 PM76 °FMild.1 mph60%30.04 "HgN/A
11:00 AM73 °FMild.1 mph65%30.03 "HgN/A
10:00 AM70 °FMild.1 mph79%30.03 "HgN/A
9:00 AM67 °FMild.2 mph88%30.02 "HgN/A
8:00 AM65 °FOvercast.1 mph94%30.02 "Hg6 mi
7:00 AM64 °FOvercast.1 mph95%30.01 "Hg6 mi
6:00 AM64 °FMild.1 mph96%30.00 "HgN/A
5:00 AM63 °FMild.1 mph94%30.00 "HgN/A
4:00 AM64 °FMild.1 mph94%30.01 "HgN/A
3:00 AM64 °FMild.1 mph91%30.02 "HgN/A
2:00 AM64 °FMild.No wind91%30.01 "HgN/A
1:00 AM64 °FMild.No wind92%30.03 "HgN/A
12:00 AM64 °FMild.1 mph90%30.02 "HgN/A
10:00 PM
Sat, Aug 1
65 °FMild.1 mph84%30.02 "HgN/A
9:00 PM69 °FMild.1 mph75%30.00 "HgN/A
8:00 PM73 °FOvercast.1 mph63%29.98 "Hg31 mi
7:00 PM75 °FMild.1 mph59%29.98 "HgN/A
6:00 PM75 °FMild.2 mph56%29.99 "HgN/A
5:00 PM76 °FMild.2 mph52%29.99 "HgN/A
Weather by CustomWeather, © 2015

See weather overviewHow to use our weather pages